STARLINK-6104 (56127 NORAD) Tracking and Keplerian Element Data

This shows tracking and keplerian element data for the satellite.

Feedback or suggestion? Click here.




ElementValue
Catalog56127
NameSTARLINK-6104
Epoch Orbit656
Epoch Day127.25001157
Epoch Year2023
RAAN33.6943
Inclination43.0015
Eccentricity0.0001485
Argument of Perigee268.2382
Mean Anonmoly350.385
Mean Motion15.4886776
Decay Rate0.00048617
L11 56127U 23046AM 23127.25001157 .00048617 00000+0 88101-3 0 9998
L22 56127 43.0015 33.6943 0001485 268.2382 350.3850 15.48867760 6566



Live tracking and technical data element details for STARLINK-6104 (NORAD 56127). STARLINK-6104 can be tracked NOW for your location showing map with azimuth and elevation plus other details from your city location.







IsCatalogInMostPopularTable: catalog: 56127, numindb: 3
Update: records affected: 1



GetName: 56127 STARLINK-6104

Hit Count: updated at: Sat, 03 Jun 2023 18:22:18 GMT